BER43 LICA-EDDN

Flight info

Callsign BER43
Flight time 1h 47m
Altitude 18000
Route ARBUM M620 POLIT/N0452F380 DCT SOR DCT TEA DCT ATRUP DCT AMSED DCT GIKEB/N0401F180 Z468 BRENO M726 MAH L132 LASMI Y103 UNKUL L610 UPALA UPALA1V
Aircraft B752/M-SDE1FGHILRWXYZ/LB1

Departure

Time 2026-04-25 18:16
Airport Lamezia Terme Sant'Eufemia International Airport (LICA)

Arrival

Time 2026-04-25 20:03
Airport Nuremberg Airport (EDDN)
Time Latitude Longitude Altitude Speed Heading
2026-04-25 17:48 38.90899 16.24289 41 ft 0 kts 97°
2026-04-25 18:09 38.90899 16.24293 39 ft 2 kts 97°
2026-04-25 18:09 38.90897 16.24315 39 ft 5 kts 97°
2026-04-25 18:10 38.90880 16.24344 40 ft 3 kts 156°
2026-04-25 18:10 38.90845 16.24352 40 ft 6 kts 175°
2026-04-25 18:10 38.90813 16.24378 40 ft 5 kts 102°
2026-04-25 18:10 38.90810 16.24430 41 ft 6 kts 95°
2026-04-25 18:11 38.90805 16.24485 42 ft 6 kts 98°
2026-04-25 18:11 38.90792 16.24540 42 ft 6 kts 119°
2026-04-25 18:11 38.90757 16.24585 42 ft 7 kts 141°
2026-04-25 18:11 38.90721 16.24634 42 ft 7 kts 117°
2026-04-25 18:12 38.90707 16.24706 42 ft 9 kts 99°
2026-04-25 18:12 38.90692 16.24832 42 ft 18 kts 98°
2026-04-25 18:12 38.90673 16.24994 46 ft 18 kts 98°
2026-04-25 18:12 38.90655 16.25157 46 ft 18 kts 98°
2026-04-25 18:13 38.90635 16.25321 46 ft 19 kts 99°
2026-04-25 18:13 38.90614 16.25487 48 ft 18 kts 99°
2026-04-25 18:13 38.90595 16.25646 49 ft 18 kts 97°
2026-04-25 18:14 38.90559 16.25964 52 ft 17 kts 98°
2026-04-25 18:14 38.90542 16.26112 54 ft 16 kts 98°
2026-04-25 18:14 38.90479 16.26205 55 ft 14 kts 151°
2026-04-25 18:14 38.90385 16.26263 55 ft 15 kts 163°
2026-04-25 18:15 38.90318 16.26254 54 ft 7 kts 227°
2026-04-25 18:15 38.90312 16.26185 52 ft 9 kts 278°
2026-04-25 18:15 38.90324 16.26076 52 ft 22 kts 278°
2026-04-25 18:15 38.90377 16.25617 48 ft 80 kts 278°
2026-04-25 18:16 38.90488 16.24670 39 ft 134 kts 278°
2026-04-25 18:16 38.90638 16.23309 210 ft 165 kts 276°
2026-04-25 18:16 38.90992 16.20201 1528 ft 177 kts 278°
2026-04-25 18:17 38.91166 16.18598 2002 ft 189 kts 279°
2026-04-25 18:17 38.91351 16.16897 2490 ft 201 kts 279°
2026-04-25 18:17 38.91559 16.15040 2827 ft 224 kts 279°
2026-04-25 18:17 38.91935 16.13008 3199 ft 246 kts 296°
2026-04-25 18:18 38.92950 16.11153 3732 ft 262 kts 310°
2026-04-25 18:18 38.94130 16.09367 4642 ft 265 kts 312°
2026-04-25 18:18 38.95332 16.07586 5582 ft 268 kts 312°
2026-04-25 18:18 38.96551 16.05775 6320 ft 277 kts 313°
2026-04-25 18:19 38.97807 16.03892 7269 ft 278 kts 313°
2026-04-25 18:19 38.99082 16.02018 8112 ft 283 kts 314°
2026-04-25 18:19 39.00356 16.00129 9040 ft 283 kts 313°
2026-04-25 18:19 39.01630 15.98223 9988 ft 282 kts 314°
2026-04-25 18:20 39.02911 15.96341 10729 ft 289 kts 314°
2026-04-25 18:20 39.04498 15.94628 10999 ft 309 kts 334°
2026-04-25 18:20 39.06492 15.93433 11520 ft 322 kts 336°
2026-04-25 18:20 39.08546 15.92195 12124 ft 334 kts 338°
2026-04-25 18:21 39.10748 15.90928 12249 ft 361 kts 338°
2026-04-25 18:21 39.13121 15.89565 12658 ft 377 kts 337°
2026-04-25 18:21 39.15465 15.88139 13508 ft 379 kts 336°
2026-04-25 18:21 39.17894 15.86686 14208 ft 385 kts 337°
2026-04-25 18:22 39.20334 15.85257 14904 ft 390 kts 338°
2026-04-25 18:22 39.21983 15.84294 15395 ft 393 kts 337°
2026-04-25 18:22 39.25309 15.82298 16351 ft 397 kts 337°
2026-04-25 18:22 39.27752 15.80623 17013 ft 403 kts 328°
2026-04-25 18:23 39.29964 15.78424 17654 ft 408 kts 321°
2026-04-25 18:23 39.32140 15.76065 18272 ft 412 kts 322°
2026-04-25 18:23 39.34327 15.73682 18932 ft 415 kts 321°
2026-04-25 18:23 39.36525 15.71275 19574 ft 418 kts 321°
2026-04-25 18:24 39.38763 15.68818 20234 ft 421 kts 321°
2026-04-25 18:24 39.41000 15.66353 20855 ft 425 kts 321°
2026-04-25 18:24 39.43242 15.63882 21446 ft 429 kts 321°
2026-04-25 18:24 39.45509 15.61378 22082 ft 432 kts 321°
2026-04-25 18:25 39.47800 15.58844 22665 ft 436 kts 321°
2026-04-25 18:25 39.50127 15.56269 23243 ft 439 kts 321°
2026-04-25 18:25 39.52430 15.53718 23797 ft 442 kts 321°
2026-04-25 18:25 39.54797 15.51094 24295 ft 447 kts 321°
2026-04-25 18:26 39.57142 15.48491 24820 ft 450 kts 321°
2026-04-25 18:26 39.59531 15.45837 25294 ft 454 kts 321°
2026-04-25 18:26 39.61930 15.43168 25791 ft 456 kts 321°
2026-04-25 18:26 39.64320 15.40508 26238 ft 460 kts 321°
2026-04-25 18:27 39.66756 15.37794 26669 ft 463 kts 321°
2026-04-25 18:27 39.69215 15.35053 27108 ft 466 kts 321°
2026-04-25 18:27 39.71673 15.32309 27523 ft 469 kts 320°
2026-04-25 18:27 39.74142 15.29553 27929 ft 472 kts 320°
2026-04-25 18:28 39.76633 15.26769 28345 ft 475 kts 320°
2026-04-25 18:28 39.79136 15.23969 28731 ft 478 kts 320°
2026-04-25 18:28 39.81656 15.21147 29121 ft 480 kts 320°
2026-04-25 18:29 39.86739 15.15447 29867 ft 485 kts 320°
2026-04-25 18:29 39.89314 15.12556 30298 ft 486 kts 320°
2026-04-25 18:30 39.96962 15.03949 31490 ft 486 kts 320°
2026-04-25 18:30 39.99475 15.01057 31862 ft 486 kts 319°
2026-04-25 18:30 40.02034 14.98117 32277 ft 486 kts 319°
2026-04-25 18:30 40.04568 14.95224 32634 ft 486 kts 320°
2026-04-25 18:31 40.07115 14.92324 33000 ft 486 kts 319°
2026-04-25 18:31 40.09641 14.89452 33377 ft 485 kts 320°
2026-04-25 18:31 40.12183 14.86562 33716 ft 485 kts 320°
2026-04-25 18:31 40.14726 14.83673 34045 ft 485 kts 319°
2026-04-25 18:32 40.17295 14.80757 34355 ft 485 kts 319°
2026-04-25 18:32 40.19826 14.77882 34784 ft 483 kts 319°
2026-04-25 18:32 40.22348 14.75015 35207 ft 482 kts 319°
2026-04-25 18:32 40.24875 14.72130 35520 ft 482 kts 319°
2026-04-25 18:33 40.27371 14.69218 35874 ft 481 kts 319°
2026-04-25 18:33 40.29859 14.66340 36247 ft 480 kts 319°
2026-04-25 18:33 40.32359 14.63462 36543 ft 479 kts 319°
2026-04-25 18:33 40.34872 14.60576 36835 ft 479 kts 319°
2026-04-25 18:34 40.37381 14.57698 37128 ft 478 kts 319°
2026-04-25 18:34 40.39862 14.54853 37377 ft 477 kts 320°
2026-04-25 18:34 40.42343 14.52007 37623 ft 476 kts 319°
2026-04-25 18:34 40.44840 14.49141 37874 ft 475 kts 320°
2026-04-25 18:35 40.47312 14.46302 38068 ft 472 kts 320°
2026-04-25 18:35 40.49771 14.43475 38075 ft 471 kts 320°
2026-04-25 18:35 40.54704 14.37799 38082 ft 474 kts 320°
2026-04-25 18:36 40.60151 14.33021 38088 ft 473 kts 336°
2026-04-25 18:36 40.66272 14.29739 38073 ft 473 kts 339°
2026-04-25 18:37 40.72381 14.26583 38073 ft 472 kts 340°
2026-04-25 18:37 40.78520 14.23545 38079 ft 473 kts 339°
2026-04-25 18:38 40.84667 14.20453 38075 ft 473 kts 339°
2026-04-25 18:38 40.90802 14.17342 38076 ft 473 kts 339°
2026-04-25 18:39 40.96945 14.14214 38075 ft 474 kts 339°
2026-04-25 18:39 41.03075 14.11083 38072 ft 473 kts 339°
2026-04-25 18:40 41.09220 14.07937 38074 ft 473 kts 339°
2026-04-25 18:40 41.15311 14.04812 38075 ft 472 kts 339°
2026-04-25 18:41 41.21479 14.01730 38074 ft 472 kts 340°
2026-04-25 18:41 41.27585 13.98565 38075 ft 473 kts 339°
2026-04-25 18:42 41.32812 13.96389 38082 ft 474 kts 345°
2026-04-25 18:42 41.40230 13.93633 38082 ft 472 kts 345°
2026-04-25 18:43 41.46559 13.91343 38081 ft 472 kts 345°
2026-04-25 18:43 41.52865 13.89096 38086 ft 469 kts 345°
2026-04-25 18:44 41.59111 13.86880 38093 ft 467 kts 345°
2026-04-25 18:44 41.65412 13.84645 38101 ft 469 kts 345°
2026-04-25 18:45 41.71687 13.82416 38115 ft 470 kts 345°
2026-04-25 18:45 41.74824 13.81301 38113 ft 458 kts 345°
2026-04-25 18:45 41.77823 13.80234 38114 ft 435 kts 345°
2026-04-25 18:46 41.80678 13.79217 38119 ft 418 kts 345°
2026-04-25 18:46 41.83462 13.78224 38132 ft 418 kts 345°
2026-04-25 18:46 41.89151 13.76192 38133 ft 425 kts 345°
2026-04-25 18:47 41.94863 13.74150 38131 ft 427 kts 345°
2026-04-25 18:47 42.00579 13.72102 38120 ft 427 kts 345°
2026-04-25 18:48 42.06327 13.70038 38111 ft 428 kts 345°
2026-04-25 18:48 42.12089 13.67985 38109 ft 428 kts 345°
2026-04-25 18:49 42.17857 13.65895 38109 ft 429 kts 344°
2026-04-25 18:49 42.23589 13.63821 38104 ft 427 kts 345°
2026-04-25 18:50 42.29282 13.61762 38105 ft 425 kts 345°
2026-04-25 18:50 42.34984 13.59691 38103 ft 426 kts 343°
2026-04-25 18:51 42.39734 13.57813 38104 ft 426 kts 343°
2026-04-25 18:51 42.46356 13.55183 38108 ft 425 kts 343°
2026-04-25 18:52 42.51996 13.52939 38106 ft 424 kts 343°
2026-04-25 18:52 42.57687 13.50669 38107 ft 426 kts 343°
2026-04-25 18:53 42.63351 13.48408 38101 ft 426 kts 343°
2026-04-25 18:53 42.69017 13.46141 38090 ft 425 kts 342°
2026-04-25 18:54 42.77514 13.42733 38086 ft 424 kts 343°
2026-04-25 18:55 42.83169 13.40498 38085 ft 424 kts 343°
2026-04-25 18:55 42.88827 13.38247 38079 ft 424 kts 342°
2026-04-25 18:56 42.94469 13.35925 38090 ft 424 kts 342°
2026-04-25 18:56 43.00121 13.33802 38092 ft 424 kts 343°
2026-04-25 18:57 43.05817 13.31596 38096 ft 424 kts 342°
2026-04-25 18:57 43.11450 13.29345 38091 ft 423 kts 342°
2026-04-25 18:58 43.17109 13.27056 38089 ft 423 kts 341°
2026-04-25 18:58 43.25517 13.23634 38060 ft 421 kts 341°
2026-04-25 18:59 43.36730 13.18905 38054 ft 421 kts 341°
2026-04-25 19:00 43.45099 13.15449 38039 ft 420 kts 341°
2026-04-25 19:01 43.53497 13.11988 38045 ft 421 kts 341°
2026-04-25 19:01 43.59109 13.09671 38041 ft 420 kts 341°
2026-04-25 19:02 43.67436 13.06128 38033 ft 420 kts 340°
2026-04-25 19:03 43.74888 13.02983 38033 ft 419 kts 340°
2026-04-25 19:03 43.81252 12.99754 38023 ft 416 kts 335°
2026-04-25 19:04 43.89247 12.95312 38014 ft 415 kts 335°
2026-04-25 19:05 43.99983 12.89325 38012 ft 415 kts 335°
2026-04-25 19:06 44.05330 12.86336 38011 ft 415 kts 335°
2026-04-25 19:06 44.13372 12.81965 38013 ft 414 kts 335°
2026-04-25 19:07 44.21428 12.77596 38017 ft 414 kts 335°
2026-04-25 19:08 44.29322 12.72967 38014 ft 412 kts 334°
2026-04-25 19:09 44.39100 12.67467 38015 ft 414 kts 335°
2026-04-25 19:10 44.47990 12.62446 38016 ft 414 kts 335°
2026-04-25 19:10 44.53370 12.59496 38013 ft 413 kts 335°
2026-04-25 19:11 44.58666 12.56431 38010 ft 411 kts 334°
2026-04-25 19:11 44.63938 12.53379 38011 ft 411 kts 334°
2026-04-25 19:12 44.69220 12.50399 38009 ft 412 kts 335°
2026-04-25 19:12 44.74527 12.47430 38008 ft 411 kts 335°
2026-04-25 19:13 44.79829 12.44348 38010 ft 411 kts 334°
2026-04-25 19:13 44.85052 12.41271 38009 ft 410 kts 334°
2026-04-25 19:14 44.90328 12.38203 38006 ft 410 kts 334°
2026-04-25 19:14 44.95594 12.35150 37998 ft 410 kts 334°
2026-04-25 19:15 45.00873 12.32088 38008 ft 409 kts 334°
2026-04-25 19:15 45.06118 12.29043 38004 ft 410 kts 334°
2026-04-25 19:16 45.11411 12.26032 38003 ft 410 kts 334°
2026-04-25 19:16 45.16682 12.22945 38007 ft 409 kts 333°
2026-04-25 19:17 45.21917 12.19853 38011 ft 408 kts 333°
2026-04-25 19:17 45.27164 12.16771 38010 ft 409 kts 334°
2026-04-25 19:18 45.32368 12.13716 38013 ft 408 kts 334°
2026-04-25 19:18 45.37584 12.10545 38014 ft 408 kts 333°
2026-04-25 19:19 45.42790 12.07431 38014 ft 408 kts 334°
2026-04-25 19:19 45.48029 12.04336 38014 ft 408 kts 334°
2026-04-25 19:20 45.53270 12.01222 38008 ft 409 kts 334°
2026-04-25 19:20 45.58540 11.98136 38010 ft 408 kts 335°
2026-04-25 19:21 45.63752 11.95067 38016 ft 406 kts 334°
2026-04-25 19:21 45.71555 11.90372 38015 ft 407 kts 334°
2026-04-25 19:22 45.76762 11.87257 38020 ft 407 kts 334°
2026-04-25 19:23 45.84647 11.82787 38036 ft 408 kts 335°
2026-04-25 19:23 45.92497 11.78120 38050 ft 405 kts 334°
2026-04-25 19:24 45.97691 11.74927 38049 ft 406 kts 334°
2026-04-25 19:25 46.08059 11.68640 38095 ft 404 kts 335°
2026-04-25 19:25 46.13230 11.65408 38121 ft 405 kts 334°
2026-04-25 19:26 46.18441 11.62371 38126 ft 406 kts 342°
2026-04-25 19:26 46.24003 11.60632 38138 ft 408 kts 346°
2026-04-25 19:27 46.28610 11.59266 38136 ft 407 kts 346°
2026-04-25 19:27 46.35092 11.57361 38121 ft 407 kts 346°
2026-04-25 19:28 46.40628 11.55738 38126 ft 407 kts 346°
2026-04-25 19:28 46.46201 11.54275 38120 ft 410 kts 353°
2026-04-25 19:29 46.51898 11.53742 38117 ft 409 kts 353°
2026-04-25 19:29 46.57546 11.53098 38136 ft 409 kts 353°
2026-04-25 19:30 46.63229 11.52411 38149 ft 409 kts 353°
2026-04-25 19:30 46.68893 11.51710 38166 ft 409 kts 353°
2026-04-25 19:31 46.74552 11.51002 38174 ft 409 kts 353°
2026-04-25 19:31 46.80198 11.50292 38192 ft 410 kts 353°
2026-04-25 19:32 46.85871 11.49578 38188 ft 408 kts 353°
2026-04-25 19:32 46.90586 11.48996 38196 ft 409 kts 354°
2026-04-25 19:33 46.97207 11.48384 38212 ft 408 kts 353°
2026-04-25 19:33 47.02861 11.47733 38221 ft 409 kts 353°
2026-04-25 19:34 47.08573 11.47032 38211 ft 409 kts 353°
2026-04-25 19:34 47.14211 11.46323 38206 ft 408 kts 353°
2026-04-25 19:35 47.19865 11.45604 38182 ft 408 kts 353°
2026-04-25 19:35 47.25520 11.44882 38154 ft 408 kts 353°
2026-04-25 19:36 47.31162 11.44160 38156 ft 406 kts 353°
2026-04-25 19:36 47.36803 11.43436 38180 ft 407 kts 353°
2026-04-25 19:37 47.42411 11.42713 38197 ft 407 kts 353°
2026-04-25 19:37 47.48049 11.41868 38185 ft 406 kts 351°
2026-04-25 19:38 47.50853 11.41410 38027 ft 410 kts 352°
2026-04-25 19:38 47.53715 11.40986 37497 ft 415 kts 352°
2026-04-25 19:38 47.56558 11.40587 36816 ft 414 kts 353°
2026-04-25 19:38 47.59401 11.40199 36023 ft 411 kts 353°
2026-04-25 19:39 47.62218 11.39822 35230 ft 407 kts 353°
2026-04-25 19:39 47.64997 11.39454 34447 ft 405 kts 353°
2026-04-25 19:39 47.67828 11.39080 33734 ft 406 kts 353°
2026-04-25 19:39 47.70632 11.38711 33036 ft 410 kts 353°
2026-04-25 19:40 47.73483 11.38337 32337 ft 415 kts 354°
2026-04-25 19:40 47.76364 11.37961 31638 ft 416 kts 354°
2026-04-25 19:40 47.79227 11.37586 30896 ft 417 kts 354°
2026-04-25 19:40 47.82132 11.37206 30143 ft 418 kts 354°
2026-04-25 19:41 47.85006 11.36830 29427 ft 420 kts 354°
2026-04-25 19:41 47.87928 11.36448 28693 ft 421 kts 354°
2026-04-25 19:41 47.90856 11.36346 27970 ft 424 kts
2026-04-25 19:41 47.91810 11.36475 27737 ft 426 kts
2026-04-25 19:42 47.96575 11.38392 26657 ft 427 kts 19°
2026-04-25 19:42 47.99320 11.39994 26013 ft 423 kts 19°
2026-04-25 19:42 48.02057 11.41588 25367 ft 419 kts 19°
2026-04-25 19:42 48.04740 11.43149 24724 ft 415 kts 19°
2026-04-25 19:43 48.07434 11.44716 24068 ft 411 kts 19°
2026-04-25 19:43 48.10081 11.46255 23421 ft 408 kts 19°
2026-04-25 19:43 48.12697 11.47776 22891 ft 403 kts 19°
2026-04-25 19:43 48.15311 11.49252 22390 ft 400 kts 18°
2026-04-25 19:44 48.17908 11.50722 21915 ft 398 kts 18°
2026-04-25 19:44 48.20505 11.52056 21662 ft 391 kts 12°
2026-04-25 19:44 48.23201 11.52764 21422 ft 392 kts
2026-04-25 19:44 48.25905 11.53255 21170 ft 393 kts
2026-04-25 19:45 48.28606 11.53737 20914 ft 391 kts
2026-04-25 19:45 48.31278 11.54195 20670 ft 388 kts
2026-04-25 19:45 48.33953 11.54678 20415 ft 387 kts
2026-04-25 19:45 48.36645 11.55174 20163 ft 386 kts
2026-04-25 19:46 48.39287 11.55688 20102 ft 382 kts
2026-04-25 19:46 48.41925 11.56341 20109 ft 384 kts
2026-04-25 19:46 48.44562 11.56904 20125 ft 387 kts
2026-04-25 19:46 48.47233 11.57453 20112 ft 386 kts
2026-04-25 19:47 48.49895 11.57985 20114 ft 385 kts
2026-04-25 19:47 48.52551 11.58507 20110 ft 385 kts
2026-04-25 19:47 48.55205 11.59023 20117 ft 385 kts
2026-04-25 19:47 48.57834 11.59493 20114 ft 385 kts
2026-04-25 19:48 48.60523 11.59888 20096 ft 384 kts
2026-04-25 19:48 48.63157 11.60327 20114 ft 385 kts
2026-04-25 19:48 48.65790 11.60795 20104 ft 373 kts
2026-04-25 19:48 48.68288 11.61255 20101 ft 356 kts
2026-04-25 19:49 48.70732 11.61712 20106 ft 349 kts
2026-04-25 19:49 48.71524 11.61861 20110 ft 351 kts
2026-04-25 19:49 48.75494 11.62620 19797 ft 341 kts
2026-04-25 19:49 48.77899 11.63077 18629 ft 358 kts
2026-04-25 19:50 48.82816 11.62134 16813 ft 362 kts 340°
2026-04-25 19:50 48.85200 11.60932 16176 ft 359 kts 340°
2026-04-25 19:50 48.87533 11.59753 15547 ft 357 kts 340°
2026-04-25 19:51 48.89882 11.58553 14973 ft 353 kts 340°
2026-04-25 19:51 48.92166 11.57379 14431 ft 349 kts 340°
2026-04-25 19:51 48.94461 11.56196 13939 ft 342 kts 340°
2026-04-25 19:51 48.96691 11.55042 13494 ft 336 kts 339°
2026-04-25 19:52 48.98876 11.53910 13079 ft 329 kts 339°
2026-04-25 19:52 49.01009 11.52802 12702 ft 322 kts 339°
2026-04-25 19:52 49.03104 11.51714 12331 ft 315 kts 339°
2026-04-25 19:52 49.05150 11.50649 11957 ft 309 kts 339°
2026-04-25 19:53 49.07178 11.49593 11575 ft 304 kts 339°
2026-04-25 19:53 49.09152 11.48564 11194 ft 299 kts 339°
2026-04-25 19:53 49.11092 11.47553 10929 ft 291 kts 340°
2026-04-25 19:53 49.13039 11.46887 10669 ft 286 kts 352°
2026-04-25 19:54 49.15003 11.46679 10306 ft 284 kts 354°
2026-04-25 19:54 49.16962 11.46504 9935 ft 282 kts 354°
2026-04-25 19:54 49.18915 11.46324 9561 ft 280 kts 354°
2026-04-25 19:54 49.20200 11.46206 9314 ft 278 kts 354°
2026-04-25 19:55 49.22783 11.45964 8821 ft 276 kts 354°
2026-04-25 19:55 49.24675 11.45781 8450 ft 274 kts 354°
2026-04-25 19:55 49.26565 11.45594 8076 ft 273 kts 354°
2026-04-25 19:55 49.28470 11.45403 7697 ft 271 kts 354°
2026-04-25 19:56 49.30338 11.45213 7316 ft 270 kts 354°
2026-04-25 19:56 49.32171 11.45024 7106 ft 261 kts 354°
2026-04-25 19:56 49.33949 11.44844 7100 ft 246 kts 354°
2026-04-25 19:56 49.35609 11.44688 7096 ft 233 kts 354°
2026-04-25 19:57 49.37182 11.44546 7097 ft 219 kts 354°
2026-04-25 19:57 49.38655 11.44422 7075 ft 208 kts 354°
2026-04-25 19:57 49.40124 11.44299 6706 ft 213 kts 354°
2026-04-25 19:57 49.41595 11.44094 6341 ft 216 kts 345°
2026-04-25 19:58 49.42997 11.43240 5986 ft 217 kts 326°
2026-04-25 19:58 49.44146 11.41758 5636 ft 220 kts 315°
2026-04-25 19:58 49.45216 11.40072 5266 ft 223 kts 315°
2026-04-25 19:58 49.46301 11.38338 4892 ft 226 kts 313°
2026-04-25 19:59 49.47034 11.36204 4538 ft 230 kts 284°
2026-04-25 19:59 49.47268 11.33774 4184 ft 233 kts 281°
2026-04-25 19:59 49.47492 11.31421 3880 ft 220 kts 282°
2026-04-25 19:59 49.47710 11.29255 3598 ft 202 kts 282°
2026-04-25 20:00 49.47917 11.27196 3333 ft 186 kts 283°
2026-04-25 20:00 49.48046 11.25917 3182 ft 176 kts 283°
2026-04-25 20:00 49.48284 11.23576 2877 ft 159 kts 282°
2026-04-25 20:00 49.48445 11.21976 2685 ft 145 kts 282°
2026-04-25 20:01 49.48723 11.19238 2300 ft 121 kts 281°
2026-04-25 20:01 49.48857 11.17931 2157 ft 126 kts 281°
2026-04-25 20:01 49.48994 11.16573 1991 ft 129 kts 279°
2026-04-25 20:02 49.49132 11.15204 1819 ft 130 kts 279°
2026-04-25 20:02 49.49266 11.13823 1648 ft 130 kts 278°
2026-04-25 20:02 49.49408 11.12463 1446 ft 130 kts 279°
2026-04-25 20:02 49.49543 11.11073 1269 ft 129 kts 279°
2026-04-25 20:03 49.49677 11.09751 1106 ft 127 kts 278°
2026-04-25 20:03 49.49812 11.08417 1054 ft 120 kts 278°
2026-04-25 20:03 49.49914 11.07363 1053 ft 72 kts 277°
2026-04-25 20:03 49.49966 11.06821 1053 ft 32 kts 278°
2026-04-25 20:04 49.49987 11.06622 1053 ft 14 kts 279°
2026-04-25 20:04 49.49981 11.06530 1053 ft 8 kts 241°
2026-04-25 20:04 49.49936 11.06478 1053 ft 8 kts 191°
2026-04-25 20:04 49.49878 11.06499 1053 ft 9 kts 159°
2026-04-25 20:05 49.49819 11.06543 1053 ft 9 kts 138°
2026-04-25 20:05 49.49792 11.06642 1053 ft 10 kts 99°
2026-04-25 20:05 49.49780 11.06760 1053 ft 11 kts 98°
2026-04-25 20:05 49.49767 11.06889 1053 ft 12 kts 98°
2026-04-25 20:06 49.49753 11.07029 1053 ft 13 kts 98°
2026-04-25 20:06 49.49738 11.07180 1053 ft 14 kts 98°
2026-04-25 20:06 49.49723 11.07340 1053 ft 15 kts 98°
2026-04-25 20:06 49.49707 11.07508 1053 ft 16 kts 98°
2026-04-25 20:07 49.49689 11.07686 1053 ft 15 kts 98°
2026-04-25 20:07 49.49658 11.07768 1053 ft 8 kts 162°
2026-04-25 20:07 49.49599 11.07782 1053 ft 8 kts 144°
2026-04-25 20:07 49.49576 11.07867 1053 ft 9 kts 99°
2026-04-25 20:08 49.49566 11.07971 1053 ft 10 kts 98°
2026-04-25 20:08 49.49554 11.08089 1053 ft 11 kts 98°
2026-04-25 20:08 49.49542 11.08216 1053 ft 12 kts 98°
2026-04-25 20:08 49.49523 11.08345 1053 ft 12 kts 110°
2026-04-25 20:09 49.49514 11.08421 1053 ft 3 kts 60°
2026-04-25 20:09 49.49532 11.08441 1053 ft 3 kts 23°
2026-04-25 20:09 49.49546 11.08447 1053 ft 0 kts 10°